This is the latest recevied weather packets stored in our database for station/object N1JOV-7. If no packets are shown the sender has not sent any weather packets the latest 10 day(s).
| Time | Temp. | Humidity | Pressure | Rain* | Wind** | Luminosity | Snow |
|---|---|---|---|---|---|---|---|
| 1788003061 | 13.89° C | 94% | 1022.2 hPa | 0 mm | - | - | - |
| 1788002461 | 13.33° C | 96% | 1022 hPa | 0 mm | - | - | - |
| 1788001861 | 13.33° C | 96% | 1021.9 hPa | 0 mm | - | - | - |
| 1788001261 | 13.33° C | 96% | 1021.9 hPa | 0 mm | - | - | - |
| 1788000661 | 13.33° C | 96% | 1021.6 hPa | 0 mm | - | - | - |
| 1788000062 | 13.33° C | 96% | 1021.6 hPa | 0 mm | - | - | - |
| 1787999462 | 12.78° C | 96% | 1021.4 hPa | 0 mm | - | - | - |
| 1787998862 | 13.33° C | 96% | 1021.3 hPa | 0 mm | - | - | - |
| 1787998262 | 13.33° C | 96% | 1021.1 hPa | 0 mm | - | - | - |
| 1787997662 | 13.33° C | 96% | 1021.1 hPa | 0 mm | - | - | - |
| 1787997061 | 13.33° C | 96% | 1021 hPa | 0 mm | - | - | - |
| 1787996461 | 13.33° C | 96% | 1020.8 hPa | 0 mm | - | - | - |
| 1787995861 | 13.33° C | 96% | 1020.8 hPa | 0 mm | - | - | - |
| 1787995261 | 13.33° C | 96% | 1020.7 hPa | 0 mm | - | - | - |
| 1787994661 | 13.89° C | 96% | 1020.6 hPa | 0 mm | - | - | - |
| 1787994061 | 13.89° C | 95% | 1020.4 hPa | 0 mm | - | - | - |
| 1787993461 | 13.89° C | 95% | 1020.5 hPa | 0 mm | - | - | - |
| 1787992862 | 13.89° C | 95% | 1020.2 hPa | 0 mm | - | - | - |
| 1787992262 | 14.44° C | 94% | 1020.2 hPa | 0 mm | - | - | - |
| 1787991662 | 14.44° C | 94% | 1020.1 hPa | 0 mm | - | - | - |
| 1787991062 | 14.44° C | 94% | 1020 hPa | 0 mm | - | - | - |
| 1787990462 | 14.44° C | 93% | 1019.7 hPa | 0 mm | - | - | - |
| 1787989861 | 15° C | 92% | 1019.8 hPa | 0 mm | - | - | - |
| 1787989274 | 15° C | 92% | 1019.7 hPa | 0 mm | - | - | - |
| 1787988661 | 15.56° C | 91% | 1019.5 hPa | 0 mm | - | - | - |
* Rain latest hour (hover to see other rain measurements)
** Current wind speed in m/s (hover to see current wind gust speed)